Montpelier, VT

8:04 AM EST on November 15, 2019 (GMT -0500)
Knapp State

Weather History for KMPV - September, 2019

Change the Weather History Date:

Monday, September 30, 2019

  Actual Average Record
Temperature  
Mean Temperature 46 °F 52 °F  
Max Temperature 59 °F 63 °F 79 °F (1948)
Min Temperature 35 °F 41 °F 25 °F (1951)
Degree Days  
Heating Degree Days 19 14  
Month to date heating degree days 247  
Since 1 July heating degree days 355  
Cooling Degree Days 0 0  
Month to date cooling degree days 19  
Year to date cooling degree days 263  
Moisture  
Dew Point 39 °F    
Average Humidity 89    
Maximum Humidity 100    
Minimum Humidity 53    
Precipitation  
Precipitation 0.00 in 0.11 in 1.65 in (2015)
Month to date precipitation 3.12  
Year to date precipitation 27.92  
Sea Level Pressure  
Sea Level Pressure 30.40 in    
Wind  
Wind Speed 1 mph ()    
Max Wind Speed 9 mph    
Max Gust Speed -    
Visibility 5.5 miles    
Events Fog    
T = Trace of Precipitation, MM = Missing Value Source: Averaged Metar Reports

Daily Weather History Graph

Daily Weather History Graph

Search for Another Location

Airport or City:

Astronomy

Sep. 30, 2019 Rise Set
Actual Time 6:46 AM EDT 6:33 PM EDT
Civil Twilight 6:17 AM EDT 7:02 PM EDT
Nautical Twilight 5:43 AM EDT 7:35 PM EDT
Astronomical Twilight 5:09 AM EDT 8:09 PM EDT
Moon 8:50 AM EDT (9/30) 8:02 PM EDT (9/30)
Length of Visible Light 12h 44m
Length of Day
11h 46m
Waxing Crescent, 5% of the Moon is Illuminated
Sep 30
Waxing Crescent
Oct 5
First Quarter
Oct 13
Full
Oct 21
Last Quarter
Oct 27
New

Hourly Weather History & Observations

Time (EDT) Temp. Windchill Dew Point Humidity Pressure Visibility Wind Dir Wind Speed Gust Speed Precip Events Conditions
12:51 AM 37.9 °F - 35.1 °F 89% 30.47 in 10.0 mi Calm Calm - N/A   Clear
1:02 AM 37.9 °F 35.5 °F 36.0 °F 93% 30.44 in 1.2 mi SE 3.5 mph - N/A   Partly Cloudy
1:41 AM 37.9 °F - 37.0 °F 97% 30.45 in 1.5 mi Calm Calm - N/A   Overcast
1:43 AM 37.9 °F - 37.9 °F 100% 30.45 in 3.0 mi Calm Calm - N/A   Overcast
1:51 AM 37.9 °F - 37.9 °F 100% 30.47 in 10.0 mi Calm Calm - N/A   Overcast
2:01 AM 37.9 °F - 37.9 °F 100% 30.44 in 1.8 mi Calm Calm - N/A   Overcast
2:05 AM 39.0 °F - 37.9 °F 96% 30.45 in 1.0 mi Calm Calm - N/A   Mist
2:15 AM 39.0 °F - 39.0 °F 100% 30.44 in 0.8 mi Calm Calm - N/A   Mist
2:18 AM 37.9 °F - 37.9 °F 100% 30.44 in 1.2 mi Calm Calm - N/A   Overcast
2:21 AM 37.9 °F - 37.9 °F 100% 30.44 in 2.0 mi Calm Calm - N/A   Overcast
2:29 AM 37.9 °F - 37.9 °F 100% 30.44 in 6.0 mi Calm Calm - N/A   Mostly Cloudy
2:42 AM 39.0 °F - 37.9 °F 96% 30.43 in 10.0 mi Calm Calm - N/A   Scattered Clouds
2:51 AM 37.9 °F - 37.0 °F 97% 30.46 in 10.0 mi Calm Calm - N/A   Clear
3:51 AM 36.0 °F - 35.1 °F 97% 30.44 in 10.0 mi Calm Calm - N/A   Clear
4:00 AM 36.0 °F - 35.1 °F 97% 30.42 in 10.0 mi Calm Calm - N/A   Scattered Clouds
4:06 AM 37.0 °F - 37.0 °F 100% 30.42 in 2.5 mi Calm Calm - N/A   Mostly Cloudy
4:20 AM 37.0 °F - 36.0 °F 96% 30.43 in 10.0 mi Calm Calm - N/A   Overcast
4:30 AM 37.0 °F 34.5 °F 37.0 °F 100% 30.43 in 1.8 mi ESE 3.5 mph - N/A   Overcast
4:33 AM 37.0 °F 34.5 °F 37.0 °F 100% 30.43 in 1.0 mi ESE 3.5 mph - N/A   Mist
4:40 AM 37.0 °F - 37.0 °F 100% 30.42 in 0.2 mi Calm Calm - N/A Fog Fog
4:51 AM 37.0 °F 33.3 °F 36.0 °F 96% 30.45 in 0.5 mi South 4.6 mph - N/A Fog Fog
4:59 AM 36.0 °F - 36.0 °F 100% 30.43 in 1.2 mi Calm Calm - N/A   Overcast
5:01 AM 36.0 °F - 36.0 °F 100% 30.43 in 2.0 mi Calm Calm - N/A   Overcast
5:08 AM 37.0 °F - 37.0 °F 100% 30.42 in 1.2 mi Calm Calm - N/A   Overcast
5:17 AM 37.0 °F - 37.0 °F 100% 30.42 in 2.0 mi Calm Calm - N/A   Overcast
5:32 AM 36.0 °F 33.3 °F 36.0 °F 100% 30.42 in 1.8 mi SE 3.5 mph - N/A   Overcast
5:45 AM 35.6 °F - 35.6 °F 100% 30.42 in 1.0 mi Calm Calm - N/A   Mist
5:51 AM 36.0 °F - 36.0 °F 100% 30.45 in 0.8 mi Calm Calm - N/A   Mist
6:51 AM 37.0 °F 34.5 °F 36.0 °F 96% 30.46 in 0.2 mi South 3.5 mph - N/A Fog Fog
7:51 AM 37.9 °F 35.5 °F 37.9 °F 100% 30.46 in 0.2 mi East 3.5 mph - N/A Fog Fog
8:51 AM 39.0 °F 35.7 °F 37.9 °F 96% 30.45 in 0.2 mi SSE 4.6 mph - N/A Fog Fog
9:04 AM 39.9 °F - 39.9 °F 100% 30.42 in 1.2 mi Calm Calm - N/A   Overcast
9:06 AM 39.9 °F - 39.9 °F 100% 30.42 in 2.0 mi Calm Calm - N/A   Overcast
9:14 AM 39.9 °F - 39.9 °F 100% 30.43 in 8.0 mi Calm Calm - N/A   Overcast
9:41 AM 41.0 °F 39.0 °F 41.0 °F 100% 30.42 in 2.5 mi East 3.5 mph - N/A   Overcast
9:49 AM 42.8 °F - 41.0 °F 93% 30.42 in 9.0 mi Calm Calm - N/A   Overcast
9:51 AM 42.1 °F 40.2 °F 41.0 °F 96% 30.45 in 10.0 mi ENE 3.5 mph - N/A   Overcast
10:11 AM 43.0 °F - 42.1 °F 97% 30.42 in 10.0 mi Calm Calm - N/A   Partly Cloudy
10:51 AM 48.9 °F - 42.1 °F 77% 30.43 in 10.0 mi Variable 3.5 mph - N/A   Clear
11:51 AM 55.0 °F - 39.9 °F 57% 30.40 in 10.0 mi Variable 5.8 mph - N/A   Clear
12:51 PM 55.9 °F - 39.0 °F 53% 30.39 in 10.0 mi ESE 6.9 mph - N/A   Scattered Clouds
1:51 PM 55.9 °F - 41.0 °F 57% 30.36 in 10.0 mi South 9.2 mph - N/A   Partly Cloudy
2:51 PM 57.9 °F - 41.0 °F 53% 30.32 in 10.0 mi SE 6.9 mph - N/A   Scattered Clouds
3:51 PM 57.0 °F - 42.1 °F 57% 30.31 in 10.0 mi South 6.9 mph - N/A   Overcast
4:51 PM 55.9 °F - 41.0 °F 57% 30.30 in 10.0 mi South 6.9 mph - N/A   Overcast
5:51 PM 55.9 °F - 43.0 °F 62% 30.29 in 10.0 mi South 3.5 mph - N/A   Overcast
6:51 PM 54.0 °F - 43.0 °F 66% 30.28 in 10.0 mi SSE 3.5 mph - N/A   Scattered Clouds
7:51 PM 53.1 °F - 43.0 °F 69% 30.26 in 10.0 mi SSW 5.8 mph - N/A   Mostly Cloudy
8:51 PM 53.1 °F - 43.0 °F 69% 30.26 in 10.0 mi Calm Calm - N/A   Overcast
9:51 PM 53.1 °F - 44.1 °F 71% 30.23 in 10.0 mi Calm Calm - N/A   Overcast
10:51 PM 54.0 °F - 44.1 °F 69% 30.22 in 10.0 mi South 6.9 mph - N/A   Overcast
11:51 PM 54.0 °F - 45.0 °F 72% 30.19 in 10.0 mi Calm Calm - N/A   Overcast